Weather observations for the past three days for
Igiugig
Metric (Imperial)
Date Time (akdt) Wind (kph) Vis. (km) Weather Sky Cond. Temperature (ºC) Relative Humidity Wind Chill (°C) Heat Index (°C) Pressure Precipitation (cm)
Air Dwpt 6 hour altimeter (cm) sea level (mb) 1 hr 3 hr 6 hr
Max. Min.
16 12:56 E 9 16.09 Fair CLR 16.1 9.4 65% 76.45 1020.1
16 11:56 E 11 16.09 Fair CLR 15 9.4 69% 76.48 1020.4
16 10:56 E 11 16.09 Fair CLR 13.3 9.4 77% 76.48 1020.6
16 09:56 SW 11 16.09 Fair CLR 17.2 8.3 17.2 8.9 56% 76.5 1020.6
16 08:56 W 9 16.09 Fair CLR 14.4 8.3 67% 76.5 1020.8
16 07:56 W 9 16.09 Fair CLR 12.2 8.3 77% 76.5 1020.9
16 06:56 W 9 16.09 Fair CLR 10.6 7.8 83% 76.5 1020.7
16 05:56 W 9 16.09 Fair CLR 10 7.8 86% 9 76.48 1020.5
16 04:56 W 13 16.09 Fair CLR 10.6 8.3 86% 76.48 1020.3
16 03:56 W 9 16.09 Fair CLR 11.1 9.4 17.2 11.1 89% 76.45 1020.1
16 02:56 SW 11 16.09 Fair CLR 12.8 10 83% 76.45 1020.0
16 01:56 SW 11 16.09 Fair CLR 13.9 10.6 81% 76.43 1019.8
16 00:56 SW 11 16.09 Fair CLR 15 10 72% 76.43 1019.6
15 23:56 SW 11 16.09 Fair CLR 17.2 11.1 68% 76.4 1019.4
15 22:56 Calm 16.09 Fair CLR 14.4 8.9 70% 76.38 1019.1
15 21:56 Calm 11.27 Fair CLR 17.2 8.9 23.9 17.2 58% 76.38 1019.1
15 20:56 E 7 4.83 Fair with Haze CLR 22.2 8.9 43% 76.35 1018.8
15 19:56 E 9 14.48 Fair CLR 22.2 8.9 43% 76.35 1018.8
15 18:56 E 9 16.09 Fair CLR 23.3 8.3 38% 76.35 1018.9
15 17:56 E 13 14.48 Fair CLR 23.9 7.8 36% 25 76.38 1019.2
15 16:56 E 15 16.09 Fair CLR 23.3 8.9 40% 76.4 1019.5
15 15:56 E 13 11.27 Fair CLR 23.3 8.9 23.9 14.4 40% 76.43 1019.7
15 14:56 E 9 11.27 Fair CLR 23.3 9.4 41% 76.43 1019.9
15 13:56 Calm 16.09 Fair CLR 21.7 9.4 46% 76.45 1020.0
15 12:56 Vrbl 7 3.22 A Few Clouds with Haze FEW002 20.6 8.9 47% 76.48 1020.4
15 11:56 W 7 16.09 Fair CLR 18.3 8.9 54% 76.5 1020.7
15 10:56 W 15 16.09 Fair CLR 16.7 8.9 60% 76.53 1021.0
15 09:56 W 17 12.87 Fair CLR 14.4 7.8 14.4 9.4 65% 76.56 1021.4
15 08:56 SW 19 16.09 Fair CLR 12.8 7.2 69% 76.56 1021.4
15 07:56 W 15 16.09 Fair CLR 11.1 6.7 75% 76.56 1021.4
15 06:56 SW 17 16.09 Fair CLR 10 6.7 80% 8 76.56 1021.4
15 05:56 SW 13 16.09 Partly Cloudy SCT080 9.4 7.2 86% 8 76.56 1021.3
15 04:56 SW 13 16.09 Overcast OVC085 11.1 7.8 80% 76.53 1021.1
15 03:56 SW 15 16.09 Overcast OVC085 12.2 8.3 21.1 12.2 77% 76.53 1021.2
15 02:56 SW 13 16.09 Overcast SCT070 OVC085 12.8 9.4 80% 76.53 1021.2
15 01:56 SW 13 16.09 Overcast BKN070 OVC085 14.4 9.4 72% 76.53 1021.1
15 00:56 NW 11 16.09 Overcast OVC085 16.1 8.9 63% 76.53 1020.9
14 23:56 NW 11 16.09 Overcast OVC080 17.8 8.9 56% 76.5 1020.8
14 22:56 NW 9 16.09 Overcast OVC080 18.9 9.4 54% 76.5 1020.6
14 21:56 NW 9 14.48 Overcast OVC080 21.1 8.3 22.8 20.6 44% 76.48 1020.4
14 20:56 NW 9 16.09 Overcast OVC080 21.1 8.3 44% 76.48 1020.5
14 19:56 NW 7 16.09 Overcast OVC080 21.7 7.2 39% 76.5 1020.6
14 18:56 NW 19 16.09 Overcast FEW065 OVC080 22.2 7.2 38% 76.5 1020.8
14 17:56 N 17 16.09 Overcast OVC075 21.7 6.7 38% 76.53 1021.0
14 16:56 N 17 16.09 Overcast OVC075 21.7 7.2 39% 76.56 1021.3
14 15:56 NW 7 16.09 Overcast OVC060 21.1 7.8 21.1 10.6 42% 76.56 1021.4
14 14:56 W 15 16.09 Mostly Cloudy BKN070 20 8.3 47% 76.61 1022.0
14 13:56 W 13 16.09 A Few Clouds FEW080 18.3 8.9 54% 76.63 1022.5
14 12:56 W 15 16.09 Overcast OVC075 16.1 8.9 63% 76.68 1023.2
14 11:56 W 17 16.09 Overcast OVC080 14.4 7.8 65% 76.71 1023.5
14 10:56 SW 19 4.02 Overcast with Haze OVC080 12.2 6.7 69% 76.73 1023.9
14 09:56 W 20 16.09 Overcast BKN049 OVC075 10.6 6.1 10.6 8.9 74% 76.76 1024.1
14 08:56 SW 19 16.09 Overcast BKN047 OVC070 9.4 6.7 83% 7 76.76 1024.2
14 07:56 SW 17 16.09 NULL NULL 8.9 6.7 86% 7 76.76 1024.0
14 06:56 W 15 16.09 Overcast BKN041 OVC050 8.9 6.7 86% 7 76.76 1024.2
14 05:56 SW 15 16.09 Overcast BKN050 OVC070 9.4 5.6 77% 7 76.76 1024.0
14 04:56 SW 17 16.09 Overcast OVC060 9.4 5.6 77% 7 76.73 1023.9
14 03:56 SW 13 16.09 Overcast OVC070 10 5.6 16.7 10 74% 8 76.76 1024.1
14 02:56 SW 13 16.09 Overcast OVC070 10.6 5.6 71% 76.76 1024.2
14 01:56 W 13 16.09 Overcast OVC070 11.1 6.1 72% 76.76 1024.2
14 00:56 W 15 16.09 Overcast OVC070 12.2 5.6 64% 76.76 1024.0
13 23:56 W 19 16.09 Overcast OVC070 13.9 5 55% 76.71 1023.6
13 22:56 W 17 16.09 Overcast OVC070 15.6 5.6 52% 76.71 1023.4
13 21:56 W 13 16.09 Overcast OVC075 16.1 5.6 18.9 16.1 50% 76.68 1023.2
13 20:56 W 13 16.09 Overcast OVC075 16.7 5 46% 76.71 1023.5
13 19:56 W 13 16.09 Overcast OVC075 17.2 5 45% 76.71 1023.5
13 18:56 W 15 16.09 Overcast OVC070 17.8 4.4 41% 76.73 1023.7
13 17:56 W 11 4.83 Overcast with Haze BKN065 OVC120 17.8 3.9 40% 76.73 1023.9
13 16:56 W 15 16.09 Overcast SCT100 OVC120 17.2 3.9 41% 76.78 1024.4
13 15:56 SW 11 16.09 Overcast FEW055 OVC120 17.2 3.9 17.2 7.2 41% 76.81 1024.7
13 14:56 Vrbl 6 14.48 Overcast FEW080 OVC120 15.6 3.9 46% 76.84 1025.1
13 13:56 Calm 4.02 Overcast with Haze OVC120 14.4 4.4 51% 76.86 1025.4
Date Time (akdt) Wind (kph) Vis. (km) Weather Sky Cond. Air Dwpt Max. Min. Relative Humidity Wind Chill (°C) Heat Index (°C) altimeter (cm) sea level (mb) 1 hr 3 hr 6 hr
6 hour
Temperature (ºC) Pressure Precipitation (cm)